[[{"header":{"parameterUnit":"m.s-1","parameterCategory":1,"la1":30.2991,"la2":30.254,"lo1":-89.0895,"lo2":-89.0444,"dy":0.0017,"dx":0.0017,"nx":28,"ny":28,"refTime":"2024-05-18T21:00:00:Z","depth":0,"parameterNumber":2,"parameterNumberName":"U-component_of_WINDS"},"data":[0,0,0,0,0,0,0,0,0,0,0,0,0,0,0,0,0,0,0,0,0,0,0,0,0,0,0,0,0,0,0,0,0,0,0,0,0,0,0,0,0,0,0,0,0,0,0,0,0,0,0,0,0,0,0,0,0,0,-0.4325,-0.4323,0,-0.4172,-0.417,-0.4168,-0.4113,-0.4114,-0.4114,-0.4115,-0.3954,-0.395,-0.3945,0,0,0,0,0,0,0,0,0,0,0,0,0,-0.4568,-0.4564,-0.4325,-0.4323,-0.4321,-0.4172,-0.417,-0.4168,-0.4113,-0.4114,-0.4114,-0.4115,-0.3956,-0.395,-0.3945,0,0,0,0,0,0,0,0,0,0,0,0,0,-0.4443,-0.4562,-0.4325,-0.4276,-0.427,-0.4172,-0.417,-0.4167,-0.4113,-0.4114,-0.4114,-0.4115,-0.3958,-0.3951,-0.3944,-0.3883,0,0,-0.3922,-0.3919,0,0,0,0,0,0,0,0,-0.445,-0.4434,-0.4285,-0.4279,-0.4272,-0.4162,-0.4197,-0.4072,-0.4113,-0.4172,-0.4115,-0.4116,-0.4023,-0.401,-0.398,-0.3876,-0.3869,-0.3921,-0.3917,-0.3914,-0.3912,0,0,0,0,0,0,0,-0.4459,-0.4441,-0.4264,-0.4283,-0.4275,-0.4261,-0.4244,-0.4173,-0.4095,-0.4167,-0.4163,-0.4146,-0.4019,-0.3987,-0.3975,-0.3866,-0.3922,-0.3915,-0.3911,-0.3908,-0.3705,-0.3704,0,0,0,0,0,0,-0.4476,-0.4448,-0.4269,-0.4259,-0.4365,-0.4256,-0.4237,-0.4197,-0.4095,-0.4081,-0.4145,-0.4144,-0.3998,-0.3984,-0.397,-0.3891,-0.3914,-0.3907,-0.3903,-0.3706,-0.3705,-0.3704,0,0,0,0,0,0,-0.4482,-0.4461,-0.4275,-0.4353,-0.4328,-0.4251,-0.4206,-0.4193,-0.416,-0.4079,-0.4064,-0.4126,-0.3999,-0.398,-0.3905,-0.3885,-0.3904,-0.3897,-0.3707,-0.3706,-0.3704,-0.3735,0,0,0,0,0,0,-0.4489,-0.4463,-0.444,-0.4353,-0.4324,-0.4214,-0.4205,-0.419,-0.4149,-0.4145,-0.4057,-0.4043,-0.3998,-0.3916,-0.3898,-0.3876,-0.3892,-0.3709,-0.3707,-0.3705,-0.3736,-0.3735,-0.3734,0,0,0,0,0,-0.4498,-0.4454,-0.4439,-0.4417,-0.4293,-0.4213,-0.4196,-0.4146,-0.4147,-0.4123,-0.407,-0.4046,-0.3891,-0.3909,-0.3888,-0.3863,-0.371,-0.3707,-0.3705,-0.3736,-0.3735,-0.3734,0,0,0,0,0,0,-0.4539,-0.4441,-0.4424,-0.435,-0.429,-0.4204,-0.4171,-0.4147,-0.4085,-0.4084,-0.4023,-0.4004,-0.3934,-0.3891,-0.3914,-0.3799,-0.3799,-0.3792,-0.383,-0.3828,-0.3827,-0.3838,-0.3886,0,0,0,0,0,-0.454,-0.4484,-0.4401,-0.4344,-0.4315,-0.4249,-0.4212,-0.4179,-0.4114,-0.4088,-0.403,-0.3967,-0.3904,-0.3864,-0.3802,-0.373,-0.371,-0.3703,-0.3702,-0.3702,-0.3696,-0.3655,-0.3651,-0.3696,-0.3696,-0.3696,0,0,-0.454,-0.448,-0.4448,-0.4351,-0.4301,-0.4243,-0.4228,-0.4167,-0.4124,-0.4078,-0.4005,-0.396,-0.3886,-0.3813,-0.3778,-0.3775,-0.368,-0.3699,-0.3699,-0.3693,-0.3652,-0.3648,-0.3644,-0.3694,-0.3694,-0.3695,0,0,-0.4511,-0.446,-0.4407,-0.4358,-0.4283,-0.4239,-0.4227,-0.4144,-0.4113,-0.4039,-0.4004,-0.3951,-0.3844,-0.3793,-0.3753,-0.3707,-0.3682,-0.3689,-0.3684,-0.3645,-0.3641,-0.3637,-0.362,-0.3615,-0.3683,-0.3684,-0.3684,0,-0.452,-0.4433,-0.4383,-0.4324,-0.4283,-0.4241,-0.4187,-0.4141,-0.4049,-0.4021,-0.402,-0.3885,-0.3833,-0.3747,-0.3736,-0.3705,-0.3689,-0.3697,-0.3646,-0.3642,-0.3638,-0.3621,-0.3614,-0.3685,-0.3685,-0.3684,-0.3684,0,-0.4448,-0.4388,-0.4355,-0.4268,-0.4223,-0.4167,-0.4108,-0.4068,-0.4039,-0.3996,-0.3921,-0.3857,-0.3781,-0.3758,-0.3729,-0.3668,-0.3669,-0.3658,-0.3656,-0.3636,-0.3618,-0.3611,-0.3686,-0.3686,-0.3686,-0.3685,0,0,-0.4438,-0.4326,-0.4315,-0.4275,-0.419,-0.4143,-0.4085,-0.4012,-0.3979,-0.3918,-0.3867,-0.3779,-0.3769,-0.3723,-0.3688,-0.3654,-0.3621,-0.3647,-0.3644,-0.3643,-0.355,-0.3558,-0.3551,-0.3605,-0.3604,-0.3603,-0.3556,0,-0.4397,-0.4293,-0.4247,-0.4163,-0.4107,-0.4068,-0.4018,-0.396,-0.3918,-0.3864,-0.3818,-0.3756,-0.3747,-0.372,-0.3684,-0.3633,-0.3601,-0.3636,-0.3556,-0.3554,-0.3575,-0.3542,-0.355,-0.3509,-0.3549,-0.3548,-0.3547,0,-0.4334,-0.4274,-0.4186,-0.4109,-0.4083,-0.4039,-0.3969,-0.3918,-0.3852,-0.3824,-0.3775,-0.3742,-0.368,-0.3684,-0.3596,-0.3621,-0.3586,-0.3556,-0.3553,-0.3542,-0.3548,-0.3529,-0.3494,-0.3488,-0.3536,-0.3537,-0.3538,0,-0.4335,-0.4232,-0.4166,-0.4133,-0.4042,-0.4012,-0.3972,-0.3907,-0.3866,-0.3805,-0.3778,-0.371,-0.3673,-0.3621,-0.357,-0.3578,-0.3487,-0.3487,-0.3461,-0.3463,-0.3442,-0.3444,-0.34,-0.3423,-0.3423,-0.3423,-0.3423,0,-0.4293,-0.424,-0.4165,-0.4124,-0.4064,-0.4011,-0.3953,-0.391,-0.3853,-0.3803,-0.3765,-0.3718,-0.3655,-0.36,-0.356,-0.3494,-0.3477,-0.3452,-0.3442,-0.3455,-0.3458,-0.3429,-0.343,-0.3421,-0.3422,-0.3422,-0.3422,0,-0.4282,-0.423,-0.4155,-0.4075,-0.4054,-0.4013,-0.3944,-0.3903,-0.3861,-0.3797,-0.378,-0.3712,-0.3646,-0.3591,-0.3504,-0.3477,-0.3408,-0.3396,-0.343,-0.3424,-0.3401,-0.3404,-0.3336,-0.3324,-0.3357,-0.3357,-0.3357,0,-0.4258,-0.4216,-0.4133,-0.4097,-0.4059,-0.4001,-0.396,-0.3908,-0.3866,-0.3789,-0.3757,-0.3689,-0.3631,-0.3527,-0.3469,-0.3403,-0.3388,-0.337,-0.3378,-0.3392,-0.3387,-0.3389,-0.3384,-0.3368,-0.3368,-0.3368,-0.3368,0,-0.422,-0.4197,-0.414,-0.4074,-0.4026,-0.3972,-0.3916,-0.3888,-0.3826,-0.3781,-0.3714,-0.3669,-0.3581,-0.3513,-0.3441,-0.3399,-0.3372,-0.3366,-0.3357,-0.3368,-0.3389,-0.3376,-0.3427,-0.3367,-0.3368,-0.3368,-0.3368,-0.3368,-0.4201,-0.4162,-0.4098,-0.4036,-0.3989,-0.3938,-0.3895,-0.3848,-0.3792,-0.3716,-0.3689,-0.362,-0.3556,-0.3456,-0.3414,-0.3359,-0.3355,-0.3342,-0.3338,-0.3335,-0.3336,-0.34,-0.3346,-0.3345,-0.3345,-0.3345,-0.3345,0,-0.416,-0.4117,-0.4061,-0.3985,-0.3936,-0.3918,-0.3855,-0.3815,-0.3755,-0.3698,-0.3643,-0.3566,-0.35,-0.3439,-0.337,-0.3338,-0.3324,-0.3321,-0.3322,-0.3313,-0.3343,-0.3358,-0.3334,-0.3334,-0.3334,-0.3334,-0.3334,-0.3334,-0.4133,-0.4067,-0.4036,-0.3947,-0.3904,-0.3837,-0.3803,-0.3755,-0.371,-0.3626,-0.3571,-0.3533,-0.3474,-0.3401,-0.334,-0.3323,-0.3299,-0.33,-0.328,-0.3309,-0.3311,-0.3312,-0.3326,-0.3295,-0.3295,-0.3254,-0.3253,-0.3253]},{"header":{"parameterUnit":"m.s-1","parameterCategory":1,"la1":30.2991,"la2":30.254,"lo1":-89.0895,"lo2":-89.0444,"dy":0.0017,"dx":0.0017,"nx":28,"ny":28,"refTime":"2024-05-18T21:00:00:Z","depth":0,"parameterNumber":3,"parameterNumberName":"V-component_of_WINDS"},"data":[0,0,0,0,0,0,0,0,0,0,0,0,0,0,0,0,0,0,0,0,0,0,0,0,0,0,0,0,0,0,0,0,0,0,0,0,0,0,0,0,0,0,0,0,0,0,0,0,0,0,0,0,0,0,0,0,0,0,2.1756,2.1756,0,2.1728,2.1728,2.1727,2.1658,2.1657,2.1655,2.1654,2.1626,2.1627,2.1628,0,0,0,0,0,0,0,0,0,0,0,0,0,2.1752,2.1753,2.1756,2.1756,2.1756,2.1728,2.1728,2.1727,2.1658,2.1657,2.1655,2.1653,2.1626,2.1627,2.1628,0,0,0,0,0,0,0,0,0,0,0,0,0,2.1742,2.1753,2.1756,2.1718,2.1714,2.1728,2.1728,2.1727,2.1659,2.1656,2.1654,2.1652,2.1626,2.1627,2.1628,2.1677,0,0,2.1631,2.1631,0,0,0,0,0,0,0,0,2.1743,2.1742,2.1724,2.1721,2.1716,2.1694,2.1716,2.171,2.1659,2.168,2.1654,2.1651,2.1651,2.165,2.1649,2.1676,2.1675,2.1631,2.1631,2.1632,2.1632,0,0,0,0,0,0,0,2.1743,2.1743,2.1745,2.1724,2.1719,2.1702,2.1699,2.1715,2.1678,2.1678,2.1673,2.167,2.1648,2.1648,2.1648,2.1675,2.1631,2.1632,2.1632,2.1633,2.1741,2.1743,0,0,0,0,0,0,2.175,2.1744,2.1746,2.1744,2.1724,2.1704,2.17,2.1704,2.1678,2.1672,2.1672,2.1667,2.1648,2.1647,2.1647,2.1704,2.1632,2.1633,2.1633,2.1738,2.1741,2.1744,0,0,0,0,0,0,2.175,2.175,2.1747,2.1743,2.1741,2.1707,2.1711,2.1704,2.1704,2.1673,2.1667,2.1679,2.1646,2.1645,2.167,2.1702,2.1633,2.1634,2.1736,2.1739,2.1743,2.1818,0,0,0,0,0,0,2.175,2.1751,2.1769,2.1744,2.1742,2.1771,2.1713,2.1705,2.1706,2.1699,2.1678,2.1672,2.1644,2.1669,2.1671,2.1702,2.1635,2.1733,2.1737,2.1741,2.1812,2.1823,2.1833,0,0,0,0,0,2.175,2.1792,2.177,2.1771,2.1764,2.1773,2.1772,2.1738,2.1708,2.1727,2.1707,2.1673,2.1698,2.1672,2.1674,2.1705,2.1731,2.1736,2.1741,2.1808,2.1821,2.1832,0,0,0,0,0,0,2.1823,2.1788,2.1764,2.1798,2.1789,2.1761,2.1784,2.1754,2.1753,2.1747,2.1706,2.1702,2.1732,2.1721,2.1693,2.1752,2.1709,2.1714,2.1759,2.1771,2.1781,2.1784,2.1636,0,0,0,0,0,2.1843,2.1853,2.1822,2.1855,2.1852,2.1819,2.1821,2.1796,2.1785,2.1781,2.1763,2.1754,2.176,2.1764,2.1768,2.1809,2.1804,2.1832,2.1842,2.185,2.1857,2.1878,2.189,2.1761,2.1761,2.1761,0,0,2.1885,2.1866,2.1876,2.1869,2.1859,2.1871,2.1816,2.1831,2.1839,2.1783,2.1806,2.1792,2.1779,2.1813,2.1827,2.1805,2.1891,2.1857,2.1864,2.1866,2.1885,2.1897,2.1908,2.1764,2.1764,2.1763,0,0,2.1967,2.1954,2.1981,2.1971,2.1956,2.1933,2.194,2.1916,2.1905,2.1926,2.1885,2.1894,2.1905,2.1898,2.1895,2.1974,2.1943,2.1976,2.203,2.2052,2.2062,2.2071,2.21,2.2111,2.1982,2.1982,2.1982,0,2.2021,2.2037,2.1998,2.2016,2.2015,2.1963,2.1991,2.1983,2.1971,2.1971,2.1946,2.1958,2.1946,2.1977,2.1996,2.1996,2.2002,2.1979,2.2063,2.2072,2.208,2.2107,2.2118,2.1986,2.1986,2.1985,2.1985,0,2.2104,2.2116,2.2139,2.2128,2.2129,2.2151,2.2117,2.2122,2.2097,2.2077,2.21,2.2083,2.2082,2.2087,2.2063,2.2115,2.2102,2.2071,2.2027,2.2097,2.2122,2.2132,2.1992,2.1991,2.1989,2.1988,0,0,2.2234,2.2199,2.2209,2.2203,2.2182,2.219,2.221,2.2209,2.2215,2.2207,2.2224,2.2233,2.2204,2.2201,2.2175,2.2194,2.2258,2.216,2.2159,2.218,2.2316,2.2342,2.2354,2.2237,2.2238,2.224,2.2318,0,2.2312,2.2344,2.231,2.2349,2.2359,2.231,2.2328,2.2317,2.2299,2.2305,2.2285,2.2293,2.2253,2.2251,2.2267,2.2247,2.2285,2.2241,2.2253,2.2254,2.2259,2.2367,2.2394,2.2468,2.2327,2.2329,2.233,0,2.2409,2.2405,2.2445,2.2421,2.2424,2.2441,2.2437,2.2443,2.243,2.2415,2.2412,2.238,2.2398,2.2354,2.2379,2.2349,2.2352,2.2342,2.2344,2.2346,2.2298,2.2373,2.2491,2.2503,2.2345,2.2344,2.2343,0,2.2501,2.2506,2.253,2.2527,2.2499,2.2512,2.2501,2.2485,2.2487,2.2483,2.2483,2.2482,2.2482,2.2482,2.2451,2.2421,2.248,2.2433,2.2469,2.247,2.2486,2.2486,2.2608,2.2485,2.2484,2.2484,2.2484,0,2.2593,2.262,2.2572,2.2587,2.2616,2.2576,2.2605,2.2589,2.2576,2.2588,2.2544,2.2557,2.2514,2.2521,2.2497,2.2522,2.2522,2.2511,2.2505,2.2516,2.2518,2.2519,2.2514,2.2487,2.2486,2.2486,2.2485,0,2.2702,2.2671,2.2694,2.2666,2.2659,2.2682,2.2657,2.2671,2.2649,2.2665,2.2666,2.2632,2.2639,2.2607,2.2608,2.2592,2.263,2.2614,2.2635,2.263,2.2669,2.2667,2.2798,2.2814,2.2679,2.268,2.2681,0,2.2765,2.2784,2.2757,2.2762,2.2753,2.2761,2.2761,2.2722,2.2725,2.2711,2.2726,2.2729,2.2729,2.2743,2.2719,2.2719,2.2704,2.275,2.2704,2.2715,2.2707,2.2707,2.2709,2.276,2.2762,2.2763,2.2764,0,2.2879,2.2862,2.2864,2.2861,2.2863,2.2859,2.2852,2.2858,2.2816,2.2821,2.2827,2.2827,2.2828,2.2832,2.2828,2.2817,2.2785,2.2778,2.2787,2.28,2.2812,2.2808,2.2663,2.2776,2.2775,2.2774,2.2774,2.2773,2.2967,2.2982,2.2966,2.297,2.296,2.2954,2.2966,2.2945,2.2949,2.2946,2.2922,2.2933,2.2919,2.2909,2.2902,2.291,2.2888,2.2901,2.2904,2.2908,2.2916,2.2809,2.2909,2.2908,2.2908,2.2908,2.2907,0,2.3081,2.3067,2.3071,2.3062,2.3066,2.3032,2.3023,2.3028,2.3038,2.3027,2.3028,2.3035,2.3038,2.3014,2.3014,2.3025,2.3011,2.3027,2.3027,2.3025,2.2934,2.2928,2.3039,2.3039,2.3039,2.3039,2.3039,2.3039,2.314,2.3164,2.3145,2.3164,2.315,2.316,2.3157,2.3152,2.3143,2.3152,2.3155,2.3138,2.3122,2.312,2.3122,2.3115,2.3118,2.314,2.3128,2.3044,2.3031,2.3019,2.3013,2.314,2.3141,2.3218,2.3219,2.3219]}]]